Location: Brantley
(31.5822°N, 86.2569°W)
Time: 17:59:38
(UTC+00:00)

Courier 1B Rocket - All Passes

Search period start: 16 February 2026 00:00
Search period end: 26 February 2026 00:00
Orbit: 920 x 1201 km, 28.2° (Epoch: 16 February)

Date Brightness Start Highest point End Pass type
(mag) Time Alt. Az. Time Alt. Az. Time Alt. Az.
16 Feb - 00:17:40 10° SSW 00:22:51 28° SSE 00:28:12 10° E visible
16 Feb - 02:09:35 10° WSW 02:15:47 57° SSE 02:22:23 10° E visible
16 Feb - 04:02:35 10° W 04:09:07 67° S 04:16:09 10° ESE night (unlit)
16 Feb - 05:55:57 10° W 06:02:29 46° SSW 06:09:28 10° SE night (unlit)
16 Feb - 07:50:28 10° WSW 07:55:38 21° SSW 08:01:00 10° SSE night (unlit)
16 Feb - 23:17:31 10° SSW 23:21:52 20° SSE 23:26:15 10° ESE daylight
17 Feb - 01:08:41 10° SW 01:14:40 47° SSE 01:20:54 10° E visible
17 Feb - 03:01:29 10° W 03:07:52 67° S 03:14:40 10° E visible
17 Feb - 04:54:43 10° W 05:01:13 54° SSW 05:08:11 10° ESE night (unlit)
17 Feb - 06:48:37 10° W 06:54:24 28° SSW 07:00:31 10° SSE night (unlit)
17 Feb - 22:18:08 10° S 22:20:53 13° SSE 22:23:39 10° ESE daylight
18 Feb - 00:07:56 10° SW 00:13:35 37° SSE 00:19:23 10° E visible
18 Feb - 02:00:25 10° WSW 02:06:39 63° S 02:13:13 10° E visible
18 Feb - 03:53:33 10° W 03:59:57 61° S 04:06:49 10° ESE visible
18 Feb - 05:47:06 10° W 05:53:11 36° SSW 05:59:41 10° SE night (unlit)
18 Feb - 07:42:54 10° WSW 07:46:14 14° SSW 07:49:39 10° S night (unlit)
18 Feb - 23:07:23 10° SSW 23:12:34 28° SSE 23:17:47 10° E daylight
19 Feb - 00:59:24 10° WSW 01:05:29 56° S 01:11:48 10° E visible
19 Feb - 02:52:26 10° W 02:58:43 66° S 03:05:25 10° ESE visible
19 Feb - 04:45:47 10° W 04:51:59 44° SSW 04:58:36 10° SE night (unlit)
19 Feb - 06:40:19 10° WSW 06:45:02 19° SSW 06:49:58 10° SSE night (unlit)
19 Feb - 22:07:08 10° SSW 22:11:34 20° SSE 22:15:58 10° ESE daylight
19 Feb - 23:58:27 10° WSW 00:04:23 47° SSE 00:10:25 10° E visible
20 Feb - 01:51:19 10° W 01:57:32 66° S 02:04:01 10° E visible
20 Feb - 03:44:34 10° W 03:50:47 53° SSW 03:57:24 10° ESE visible
20 Feb - 05:38:28 10° WSW 05:43:52 26° SSW 05:49:34 10° SSE night (unlit)
20 Feb - 21:07:32 10° S 21:10:34 14° SSE 21:13:33 10° ESE daylight
20 Feb - 22:57:37 10° SW 23:03:19 37° SSE 23:09:01 10° E daylight
21 Feb - 00:50:13 10° WSW 00:56:22 63° S 01:02:40 10° E visible
21 Feb - 02:43:24 10° W 02:49:36 60° S 02:56:07 10° ESE visible
21 Feb - 04:36:58 10° W 04:42:43 34° SSW 04:48:50 10° SE night (unlit)
21 Feb - 06:33:03 10° SW 06:35:41 12° SSW 06:38:22 10° S night (unlit)
21 Feb - 21:56:58 10° SW 22:02:17 28° SSE 22:07:31 10° E daylight
21 Feb - 23:49:09 10° WSW 23:55:14 56° S 00:01:22 10° E visible
22 Feb - 01:42:16 10° W 01:48:26 65° S 01:54:49 10° ESE visible
22 Feb - 03:35:39 10° W 03:41:35 42° SSW 03:47:51 10° SE visible
22 Feb - 05:30:17 10° WSW 05:34:33 18° SSW 05:38:59 10° SSE night (unlit)
22 Feb - 20:56:34 10° SSW 21:01:15 21° SSE 21:05:49 10° ESE daylight
22 Feb - 22:48:06 10° WSW 22:54:08 47° SSE 23:00:05 10° E daylight
23 Feb - 00:41:05 10° W 00:47:16 66° S 00:53:32 10° E visible
23 Feb - 02:34:24 10° W 02:40:27 51° SSW 02:46:45 10° ESE visible
23 Feb - 04:28:23 10° WSW 04:33:26 24° SSW 04:38:44 10° SSE night (unlit)
23 Feb - 19:56:43 10° S 20:00:12 15° SSE 20:03:36 10° ESE daylight
23 Feb - 21:47:10 10° SW 21:53:03 38° SSE 21:58:46 10° E daylight
23 Feb - 23:39:55 10° WSW 23:46:08 63° S 23:52:18 10° E daylight
24 Feb - 01:33:13 10° W 01:39:19 59° S 01:45:35 10° ESE visible
24 Feb - 03:26:51 10° W 03:32:21 32° SSW 03:38:05 10° SE visible
24 Feb - 05:23:30 10° SW 05:25:13 11° SSW 05:26:57 10° SSW night (unlit)
24 Feb - 20:46:22 10° SW 20:51:58 30° SSE 20:57:22 10° E daylight
24 Feb - 22:38:44 10° WSW 22:44:59 57° S 22:51:05 10° E daylight
25 Feb - 00:32:00 10° W 00:38:11 64° S 00:44:23 10° ESE visible
25 Feb - 02:25:29 10° W 02:31:16 41° SSW 02:37:14 10° SE visible
25 Feb - 04:20:18 10° WSW 04:24:08 17° SSW 04:28:05 10° S night (unlit)
25 Feb - 19:45:50 10° SSW 19:50:54 22° SSE 19:55:44 10° ESE daylight
25 Feb - 21:37:35 10° WSW 21:43:52 48° SSE 21:49:52 10° E daylight
25 Feb - 23:30:45 10° W 23:37:02 66° S 23:43:13 10° E daylight
